SCP
1 1 1 1 1 1 1 1 1 1 0 0 0 0 0 1 1 1 1 1 1 1 1 1 2 2 2 2 2 2 2 1 1 1 2 1 1 1 1 1 1 0 0
2 1 1 1 1 1 1 1 1 1 0 0 0 0 0 0 0 1 1 1 1 1 1 1 1 2 2 2 3 2 2 2 1 1 1 1 1 1 1 1 1 1 1
2 2 1 1 1 1 2 1 1 1 0 0 0 0 0 0 0 0 0 1 1 1 1 1 1 1 2 2 3 3 2 2 1 1 1 1 1 1 1 1 1 1 1
2 2 1 1 1 1 1 1 1 1 1 0 0 0 0 0 0 0 0 0 1 1 1 1 1 1 1 2 2 3 3 2 2 1 1 1 1 1 1 1 1 1 1
2 2 1 1 1 1 1 1 1 1 1 1 0 0 0 0 0 0 0 0 1 1 1 1 1 1 1 2 2 3 3 2 1 1 1 1 1 1 1 1 1 1 1
2 2 2 1 1 1 1 1 1 1 1 1 0 0 0 0 0 0 0 0 1 1 1 1 0 1 1 1 2 2 2 2 1 1 1 1 1 1 1 1 1 1 1
2 2 2 2 1 1 1 1 1 1 0 0 0 0 0 0 0 0 0 0 1 1 0 0 0 0 1 1 2 2 2 2 1 1 1 1 1 1 1 1 1 1 1
2 2 2 2 1 1 0 0 0 0 0 0 0 0 0 0 0 0 0 0 0 0 0 0 0 0 1 1 1 1 1 1 1 1 1 1 1 1 1 1 1 1 1
1 1 1 1 1 1 0 0 0 0 0 0 0 0 0 0 0 0 0 0 0 0 0 0 0 0 1 1 1 1 1 1 1 1 1 1 1 1 1 1 1 1 1
0 1 1 1 1 1 0 0 0 0 0 0 0 0 0 0 0 0 0 0 0 0 0 0 0 0 1 2 1 0 1 1 1 1 1 1 1 1 1 1 1 1 1
0 0 1 1 1 0 0 0 0 0 0 0 0 0 0 0 0 0 0 0 0 0 0 0 0 0 1 1 1 0 0 1 1 1 1 1 1 1 1 1 1 1 1
0 0 0 0 0 0 0 0 0 0 0 0 0 0 0 0 0 0 0 0 0 0 0 0 0 0 0 0 0 0 0 0 1 1 1 1 1 1 1 1 1 1 1
0 0 0 0 0 0 0 0 0 0 0 0 0 0 0 0 0 0 0 0 0 0 0 0 0 0 0 0 0 0 0 0 0 0 1 1 1 1 1 1 1 1 1
0 0 0 0 0 0 0 0 0 0 0 0 0 0 0 0 0 0 0 0 0 0 0 0 0 0 0 0 0 0 0 0 0 0 0 0 0 0 0 1 1 1 1
0 0 0 0 1 0 0 0 0 0 0 0 0 0 0 0 0 0 0 0 0 0 0 0 0 0 0 0 0 0 0 0 0 0 0 0 0 0 0 0 0 0 0
0 0 1 1 1 0 0 0 0 0 0 0 0 0 0 0 0 0 0 0 0 0 0 0 0 0 0 0 0 0 0 0 0 0 0 0 0 0 0 0 0 0 0
0 0 1 1 1 0 0 0 0 0 0 0 0 0 0 0 0 0 0 0 0 0 0 0 0 0 0 0 0 0 0 0 0 0 0 0 0 0 0 0 0 0 0
0 0 1 1 0 0 0 0 0 0 0 0 0 0 0 0 0 0 0 0 0 0 0 0 0 0 0 0 0 0 0 0 0 0 0 0 0 0 0 0 0 0 0
0 0 1 0 0 0 0 0 0 0 0 0 0 0 0 0 0 0 0 0 0 0 0 0 0 0 0 0 0 0 0 0 0 0 0 0 0 0 0 0 0 0 0
0 0 0 0 0 0 0 0 0 0 0 0 0 0 0 0 0 0 0 0 0 0 0 0 0 0 0 0 0 0 0 0 0 0 0 0 0 0 0 0 0 0 0
0 0 0 0 0 0 0 0 0 0 0 0 0 0 0 0 0 0 0 0 0 0 0 0 0 0 0 0 0 0 0 0 0 0 0 0 0 0 0 0 0 0 0
0 0 0 0 0 0 0 0 0 0 0 0 0 0 0 0 0 0 0 0 0 0 0 0 0 0 0 0 0 0 0 0 0 0 0 0 0 0 0 0 0 0 0
0 0 0 0 0 0 0 0 0 0 0 0 0 0 0 0 0 0 0 0 0 0 0 0 0 0 0 0 0 0 0 0 0 0 0 0 0 0 0 0 0 0 0
0 0 0 0 0 0 0 0 0 0 0 0 0 0 0 0 0 0 0 0 0 0 0 0 0 0 0 0 0 0 0 0 0 0 0 0 0 0 0 0 0 0 0
0 0 0 0 0 0 0 0 0 0 0 0 0 0 0 0 0 0 0 0 0 0 0 0 0 0 0 0 0 0 0 0 0 0 0 0 0 0 0 0 0 0 0
0 0 0 0 0 0 0 0 0 0 0 0 0 0 0 0 0 0 0 0 0 0 0 0 0 0 0 0 0 0 0 0 0 0 0 0 0 0 0 0 0 0 0
Wind_Speed
2 2 1 1 2 1 2 2 2 2 2 2 2 3 2 2 2 1 2 5 5 5 6 6 6 6 6 6 6 6 5 5 5 4 3 3 3 3 4 4 5 4 5
2 2 1 1 1 1 1 1 2 1 2 1 2 2 2 2 1 1 3 4 5 5 5 6 6 6 6 6 6 6 5 4 4 4 4 4 4 4 4 5 5 5 6
2 2 1 1 1 1 1 1 1 1 1 1 2 2 1 1 1 0 1 2 3 4 5 6 6 5 6 6 6 5 5 4 4 4 4 4 4 4 4 5 5 6 6
2 2 1 1 0 0 1 1 0 0 1 1 1 2 1 1 1 1 0 1 2 2 4 5 5 6 6 6 6 5 5 5 5 4 4 4 4 4 5 5 5 5 6
3 2 1 1 1 1 0 0 0 0 0 1 1 1 1 1 1 1 1 1 1 2 2 3 5 5 5 5 6 5 6 6 5 5 5 5 5 5 6 6 6 6 7
3 2 1 1 1 1 0 0 0 0 0 0 1 2 2 1 1 1 1 1 1 1 1 2 2 3 5 5 5 5 6 6 6 6 6 7 6 6 7 7 7 7 7
2 2 1 1 1 1 1 1 1 1 0 0 1 2 2 2 1 1 1 0 1 1 1 1 1 1 1 4 4 4 5 6 7 7 7 7 8 7 8 8 8 8 8
2 2 2 1 1 1 1 1 1 1 0 1 1 0 1 2 2 1 0 0 1 1 1 1 1 1 1 1 2 3 5 7 8 8 8 8 8 8 8 9 8 8 8
2 1 1 1 1 1 1 1 1 1 1 1 0 1 1 1 2 2 1 1 1 1 1 1 1 1 1 1 1 1 3 5 8 9 9 9 8 8 8 9 9 9 9
2 2 1 1 1 1 1 1 1 1 2 1 0 0 1 1 0 2 2 2 2 2 2 1 1 1 1 0 1 1 2 4 7 9 9 9 8 8 8 9 9 9 9
1 2 2 1 2 1 1 1 1 1 1 2 1 0 0 1 1 1 2 3 3 2 2 2 1 1 1 0 0 0 2 4 7 9 9 9 8 9 9 9 10 9 9
1 1 1 1 1 1 2 2 2 1 1 1 1 1 1 1 1 1 2 2 3 2 2 2 1 1 1 1 1 1 3 4 6 9 9 9 9 9 9 9 9 10 9
1 1 1 2 1 1 1 2 1 2 2 1 1 1 1 1 1 1 1 2 2 2 2 2 1 1 1 0 1 1 3 4 6 8 9 9 8 8 8 8 9 9 9
1 1 1 1 1 1 1 1 1 2 1 2 2 2 1 2 1 1 1 1 2 2 2 3 1 1 0 1 1 2 2 4 6 7 8 8 7 6 6 7 8 8 9
1 2 1 1 1 1 1 1 1 2 2 2 3 3 2 2 1 1 1 1 2 3 3 2 1 1 1 1 2 2 2 4 6 6 7 6 5 5 6 6 7 7 7
2 2 2 1 1 1 2 2 2 2 2 2 2 2 2 1 1 1 1 1 2 3 4 2 2 2 2 2 3 2 2 5 6 6 6 5 4 4 5 6 6 6 6
2 2 2 1 1 1 2 2 2 2 3 2 2 2 3 2 2 1 1 1 2 2 5 4 2 2 2 2 3 2 2 2 3 5 6 5 4 5 5 6 6 6 6
2 2 2 2 2 2 2 3 3 3 3 3 3 3 3 2 3 2 2 2 3 3 3 6 4 2 3 2 2 3 3 2 2 4 5 5 5 6 6 6 6 6 6
1 2 2 2 2 2 2 3 3 3 3 3 3 3 3 3 3 3 3 3 2 3 2 4 5 3 2 2 2 3 3 2 3 3 5 5 5 6 6 6 6 6 5
1 2 2 2 2 2 2 2 2 2 2 3 3 3 3 3 4 3 3 3 3 3 3 3 4 3 3 2 1 2 3 2 3 3 4 4 5 5 6 6 6 5 5
2 2 2 2 2 2 2 2 2 2 2 2 2 3 3 4 5 4 3 3 3 3 3 3 4 3 3 2 2 2 3 3 3 2 2 2 2 2 3 5 5 5 5
2 2 2 2 2 2 3 4 3 3 3 3 3 3 3 4 5 6 7 6 5 5 4 4 4 5 5 4 3 2 2 2 3 1 1 3 2 3 3 2 5 6 6
2 2 2 2 3 3 5 5 6 3 3 3 3 3 3 3 4 4 5 6 6 9 9 6 6 6 5 4 3 3 3 3 4 2 1 4 2 3 3 3 6 6 5
2 2 3 3 3 4 5 6 6 4 3 4 4 4 4 4 4 4 3 4 4 5 6 6 6 6 5 4 3 4 4 4 3 2 2 3 2 3 3 3 5 6 6
3 3 3 3 4 4 6 6 6 3 3 4 4 4 4 5 7 7 4 4 5 5 6 8 8 8 8 7 5 2 2 2 3 2 2 2 2 2 3 3 4 5 6
3 3 4 4 4 5 6 7 6 3 3 4 4 4 7 7 8 8 5 5 6 5 4 4 5 6 6 6 6 4 4 3 2 3 2 2 1 1 3 2 2 2 3
Wind_Direction
139 139 150 161 168 174 175 201 232 239 243 233 228 230 235 232 224 185 156 179 187 204 225 234 238 242 239 240 243 239 238 241 239 239 245 251 256 263 266 276 283 291 297
140 144 141 143 168 163 169 202 235 241 252 250 251 252 245 246 230 175 160 179 193 203 220 231 238 242 249 250 246 238 230 229 230 231 236 246 255 263 268 272 279 279 282
141 137 136 134 177 166 161 206 255 289 286 288 272 271 257 251 269 231 163 165 177 199 216 229 240 246 250 253 251 243 234 232 234 239 240 249 252 258 269 275 281 278 278
141 137 135 145 168 144 151 179 212 299 307 303 295 299 301 292 289 278 219 170 169 181 205 220 231 242 249 253 257 251 246 242 239 239 241 248 255 259 267 275 280 287 289
149 141 147 150 113 96 130 185 90 89 342 322 299 294 297 296 265 255 240 217 187 179 182 204 219 227 235 248 254 255 257 252 247 244 246 249 254 258 264 270 276 283 288
141 132 146 127 103 113 138 159 146 17 231 262 308 311 299 281 279 259 250 268 235 204 196 203 210 221 222 232 243 257 266 264 260 256 254 255 257 259 265 268 274 279 284
140 140 140 126 123 142 178 157 95 58 355 19 32 337 312 284 281 275 256 286 303 269 247 231 197 210 215 213 224 253 269 269 267 264 261 261 261 260 264 268 273 278 282
137 146 142 151 148 134 125 104 93 92 360 37 100 82 334 332 333 298 281 253 317 332 312 287 222 222 224 189 201 236 266 273 274 270 269 267 264 262 264 268 272 276 280
125 130 140 146 145 148 168 169 140 120 153 307 48 131 151 251 324 321 336 359 357 352 331 321 299 258 226 169 178 237 271 279 278 277 275 273 266 264 267 271 273 275 279
129 130 147 154 155 154 167 186 155 158 163 194 251 179 196 161 163 314 320 334 347 329 315 316 318 301 271 180 166 206 276 282 281 280 278 278 272 267 269 273 278 280 282
143 135 131 157 164 171 181 183 160 181 187 191 196 231 278 293 209 204 275 305 319 306 307 307 304 302 318 300 184 281 284 283 286 285 281 278 275 273 273 275 279 284 285
156 154 139 152 162 181 186 183 177 192 215 216 216 225 222 216 222 217 255 285 293 292 304 302 300 295 299 333 317 326 304 297 295 294 287 282 279 279 279 280 283 286 285
151 163 120 150 169 192 191 175 177 195 201 198 213 238 250 253 247 247 258 277 289 292 288 281 264 257 291 339 323 302 294 297 298 297 296 294 294 290 285 283 285 288 287
143 128 116 152 161 182 192 172 181 203 206 200 220 233 246 259 255 238 224 254 294 292 278 269 281 250 310 326 302 291 294 300 305 300 299 305 310 310 300 292 292 291 292
144 155 157 161 160 187 202 189 192 212 216 210 215 224 232 246 243 241 226 205 225 277 281 269 277 273 293 303 295 291 290 298 297 296 299 304 309 313 309 304 299 296 294
177 175 179 185 182 195 202 199 211 218 220 227 217 216 229 232 234 229 227 233 221 237 269 273 270 284 290 291 287 292 285 294 287 288 293 289 288 299 304 304 303 301 300
187 188 195 205 205 213 212 205 213 218 224 234 231 220 230 227 226 229 229 233 245 241 262 279 278 289 288 290 298 293 288 285 285 284 289 287 283 287 290 294 298 299 298
198 192 199 214 224 226 224 216 221 223 224 226 226 224 235 232 229 228 227 231 239 240 251 275 285 283 275 274 283 290 289 283 277 278 283 284 285 286 283 285 286 288 292
204 198 200 214 219 225 233 232 225 226 227 227 223 224 232 226 236 235 235 239 243 250 247 263 278 272 270 272 289 291 283 282 284 279 274 275 283 282 281 281 279 284 293
211 209 207 216 218 217 227 238 234 235 241 243 235 229 229 226 232 235 240 241 243 252 255 261 270 271 266 263 257 278 289 281 281 282 274 276 281 284 286 284 285 288 292
224 217 210 218 219 214 215 222 241 242 240 249 252 245 238 235 236 240 242 237 237 246 255 260 265 271 265 263 255 252 273 284 276 262 276 280 281 278 280 279 278 279 285
236 224 217 219 226 233 245 249 249 240 240 238 248 252 248 244 248 253 254 251 243 242 248 251 257 259 262 253 245 244 257 277 282 277 269 277 257 262 266 255 271 278 281
251 240 229 224 226 234 249 256 260 250 241 240 241 245 259 253 250 244 255 259 262 258 250 245 252 257 260 252 246 250 243 242 251 255 260 274 263 261 264 271 273 273 279
249 250 246 236 234 239 248 256 264 252 242 241 239 239 245 251 248 247 246 251 252 257 255 249 246 253 256 253 237 240 240 247 259 251 206 259 269 266 281 277 273 271 281
252 249 246 239 237 244 247 253 260 241 241 247 243 239 240 244 251 256 248 248 257 261 260 254 254 256 256 256 246 238 235 245 266 258 213 229 263 289 284 272 271 271 279
247 247 247 240 234 237 247 252 253 231 241 250 249 242 244 251 258 258 247 241 253 257 258 269 266 267 263 259 246 222 215 220 241 256 221 205 245 308 300 284 282 290 286